• Join FlightAware (Why Join?)
  • Login
  • US Flag 
03:20AM EDT


 

Airport Tracker/Info


-or-


 

Live Flight TrackerFlight Track Log ✈ DAL6234 ✈ 09-Apr-2013 ✈ KSYR - KLGA

Flight Track Log - Related Links

Times and Time Zones

All times are in EDT time to prevent confusion due to time zone crossing. See the DAL6234 flight status page for this flight to view local times or setup timezone preferences in your user account.

Time Position Orientation Groundspeed Altitude Reporting Facility
EDT Latitude Longitude Course Direction KTS MPH feet Rate Location/Type
06:20PM 43.1089 -76.0922 95° East 194 223 1,300  Level Boston Center
06:21PM 43.1047 -76.0292 95° East 203 234 3,400 2,160 Climbing Boston Center
06:22PM 43.0508 -75.9494 133° Southeast 258 297 6,200 2,580 Climbing Boston Center
06:23PM 42.9886 -75.8719 138° Southeast 283 326 9,300 2,640 Climbing Boston Center
06:24PM 42.9181 -75.7858 138° Southeast 311 358 11,500 2,280 Climbing Boston Center
06:25PM 42.8417 -75.6939 139° Southeast 343 395 13,900 2,400 Climbing Boston Center
06:26PM 42.7608 -75.5964 138° Southeast 371 427 16,400 2,280 Climbing Boston Center
06:27PM 42.6761 -75.4958 139° Southeast 392 451 18,600 2,160 Climbing Boston Center
06:28PM 42.5914 -75.3931 138° Southeast 402 463 20,800 1,200 Climbing Boston Center
06:29PM 42.4983 -75.2786 138° Southeast 424 488 21,000 60 Climbing Boston Center
06:30PM 42.4247 -75.1319 124° Southeast 453 521 21,000  Level Boston Center
06:31PM 42.3661 -74.9664 116° Southeast 466 536 21,000  Level Boston Center
06:32PM 42.3047 -74.8067 117° Southeast 477 549 21,000  Level Boston Center
06:33PM 42.2456 -74.6417 116° Southeast 482 555 21,000 -420 Level Boston Center
06:34PM 42.1861 -74.4856 117° Southeast 482 555 20,200 -1,380 Descending Boston Center
06:35PM 42.1222 -74.3156 117° Southeast 465 535 18,300 -1,320 Descending Boston Center
06:36PM 42.0342 -74.2261 143° Southeast 408 470 17,700 -1,380 Descending Boston Center
06:37PM 41.9331 -74.1647 156° South 395 455 15,600 -2,340 Descending Boston Center
06:38PM 41.8317 -74.1006 155° Southeast 395 455 13,100 -1,860 Descending Boston Center
06:39PM 41.7389 -74.0425 155° Southeast 384 442 11,900 -1,140 Descending Boston Center
06:40PM 41.6478 -73.9875 156° South 377 434 10,900 -1,080 Descending Boston Center
06:41PM 41.5611 -73.9328 155° Southeast 365 420 9,800 -780 Descending Boston Center
06:43PM 41.4528 -73.8767 159° South  Level FlightAware Approximate
06:43PM 41.4167 -73.8500 159° South 315 362 8,800  Level New York TRACON
06:44PM 41.3500 -73.8000 151° Southeast 306 352 7,000 -1,740 Descending New York TRACON
06:45PM 41.2833 -73.7333 143° Southeast 303 349 5,400 -1,020 Descending New York TRACON
06:47PM 41.1333 -73.6500 157° South 278 320 4,000 -480 Descending New York TRACON
06:48PM 41.0667 -73.6333 169° South 276 318 4,000  Level New York TRACON
06:49PM 40.9833 -73.6333 180° South 274 315 4,000  Level New York TRACON
06:50PM 40.9167 -73.6167 169° South 277 319 4,000  Level New York TRACON
06:52PM 40.8000 -73.7500 221° Southwest 264 304 4,000  Level New York TRACON
06:53PM 40.7833 -73.8333 255° West 258 297 4,000  Level New York TRACON
06:54PM 40.7833 -73.9167 270° West 241 277 4,000  Level New York TRACON
06:55PM 40.7667 -73.9833 252° West 186 214 4,000  Level New York TRACON
06:56PM 40.7333 -74.0167 217° Southwest 191 220 4,000 -480 Level New York TRACON
06:57PM 40.6833 -74.0333 194° South 206 237 3,100 -720 Descending New York TRACON
06:58PM 40.6833 -73.9667 90° East 207 238 2,600 -360 Descending New York TRACON
06:59PM 40.7167 -73.9333 37° Northeast 171 197 2,400 -540 Descending New York TRACON
07:00PM 40.7333 -73.8833 66° East 141 162 1,600 -780 Descending New York TRACON
07:01PM 40.7500 -73.8333 66° East 138 159 900 -720 Descending New York TRACON
07:02PM 40.7667 -73.8500 323° Northwest 135 155 200 -720 Descending New York TRACON
07:04PM 40.7772 -73.8726 204° Southwest  Level Estimated